Content
SEND FEEDBACK

Daily
Averages
Monthly
Summary
United States of America

CAMP QUEZON, GUAM


Home > North America > United States > Guam
Elevation: 269 feet     Latitude: 13 28N     Longitude: 144 48E

WEATHER
 
SELECT A DAY
Number of Records: 209,340;   Date Range: 1/1/95 - 9/20/14
 
SHARE

PRINT THIS DATA

[ ← Previous Day ]
WEATHER ALMANAC - FEBRUARY 3, 2013
[ Next Day → ]
[ °C ]   °F
Weather ElementAverageHighLow
Temperature80.1 °F84.9 °F (12:54 pm)75.9 °F (3:54 am)
Dewpoint70.3 °F72 °F (9:54 am)69.1 °F (2:54 am)
Humidity72.3 %82 % (3:54 am)61 % (12:54 pm)
Barometer29.97 in30.00 in (8:54 am)29.92 in (2:54 pm)
Wind Speed14.8 mph21.9 mph (11:17 am)
Wind Gust29.9 mph (11:54 am)
Weather ElementAverage
Visibility10 mi
Wind DirectionENE (66.8 °)

Weather ElementTotal
Precipitation---
Cooling Degree Days15.4 (Base 65)
Growing Degree Days30.4 (Base 50)
Averaged from 25 records on February 3, 2013
WEATHER CONDITIONS BREAKOUT
WIND DIRECTION BREAKOUT
WEATHER BY HOUR - FEBRUARY 3, 2013
[ °C ]   °F
Local TimeTemperatureDewpointHumidityBarometerVisibilityWind DirectionWind SpeedGust SpeedPrecipitationEventsConditions
1:54 AM77.0 °F70.0 °F79 %29.97 in10.0 miNE (50°)12.7 mphMostly Cloudy
2:54 AM77.0 °F69.1 °F76 %29.95 in10.0 miENE (70°)15.0 mphPartly Cloudy
3:54 AM75.9 °F70.0 °F82 %29.94 in10.0 miENE (60°)12.7 mphScattered Clouds
4:54 AM77.0 °F69.1 °F76 %29.95 in10.0 miENE (60°)9.2 mphOvercast
5:54 AM77.0 °F69.1 °F76 %29.96 in10.0 miNE (50°)10.4 mphOvercast
6:54 AM77.0 °F70.0 °F79 %29.98 in10.0 miENE (60°)9.2 mphOvercast
7:54 AM78.1 °F70.0 °F76 %29.99 in10.0 miENE (60°)9.2 mphMostly Cloudy
8:54 AM79.0 °F71.1 °F77 %30.00 in10.0 miENE (70°)17.3 mphMostly Cloudy
9:54 AM80.1 °F72.0 °F76 %30.00 in10.0 miENE (60°)12.7 mph0.00 inMostly Cloudy
10:54 AM82.9 °F70.0 °F65 %29.99 in10.0 miEast (80°)19.6 mphMostly Cloudy
11:17 AM84.2 °F69.8 °F62 %30.00 in10.0 miEast (80°)21.9 mphMostly Cloudy
11:30 AM84.2 °F69.8 °F62 %30.00 in10.0 miENE (70°)21.9 mph28.8 mphMostly Cloudy
11:54 AM82.9 °F69.1 °F63 %29.96 in10.0 miENE (70°)21.9 mph29.9 mphMostly Cloudy
12:54 PM84.9 °F70.0 °F61 %29.95 in10.0 miEast (80°)17.3 mph26.5 mphMostly Cloudy
1:54 PM82.9 °F70.0 °F65 %29.94 in10.0 miENE (70°)20.7 mph27.6 mphMostly Cloudy
2:54 PM84.0 °F70.0 °F63 %29.92 in10.0 miEast (80°)19.6 mph27.6 mphMostly Cloudy
3:54 PM82.9 °F71.1 °F67 %29.93 in10.0 miEast (80°)16.1 mph25.3 mphScattered Clouds
4:54 PM82.0 °F71.1 °F69 %29.94 in10.0 miEast (80°)15.0 mphPartly Cloudy
5:54 PM81.0 °F71.1 °F72 %29.95 in10.0 miENE (70°)16.1 mph24.2 mphPartly Cloudy
6:54 PM79.0 °F71.1 °F77 %29.96 in10.0 miENE (60°)11.5 mphScattered Clouds
7:54 PM79.0 °F71.1 °F77 %29.98 in10.0 miENE (60°)12.7 mphClear
8:54 PM79.0 °F71.1 °F77 %29.99 in10.0 miENE (60°)10.4 mphPartly Cloudy
9:54 PM79.0 °F71.1 °F77 %30.00 in10.0 miENE (60°)11.5 mphPartly Cloudy
10:54 PM79.0 °F70.0 °F74 %30.00 in10.0 miENE (70°)13.8 mph0.00 inScattered Clouds
11:54 PM78.1 °F71.1 °F79 %29.99 in10.0 miENE (60°)10.4 mphScattered Clouds
Hourly data recorded from PGUM, located miles away from Camp Quezon, Guam







STORIES FROM OUR PARTNERS